Hourly Data Report for July 29, 2021

LONDON CS
ONTARIO
Current Station Operator: ECCC - MSC

43°02'00.000" N
81°09'00.000" W
278.00 m
6144478
71622
WSN

Download Data

Hourly Data (July 2021)
Hourly Data Report for July 29, 2021
TIME
LST
Temp Definition
°C
Dew Point Definition
°C
Rel Hum Definition
%
Precip. Amount Definition
mm

Wind Dir Definition
10's deg

Wind Spd Definition
km/h
Visibility Definition
km
Stn Press Definition
kPa
Hmdx Definition


Wind Chill Definition


Weather Definition


00:00 17.8 15.8 89 0.0       98.22     LegendNANA
01:00 17.4 15.5 89 0.0       98.21     LegendNANA
02:00 17.5 15.5 88 0.0       98.17     LegendNANA
03:00 17.6 15.7 89 0.0       98.05     LegendNANA
04:00 17.7 16.3 91 0.0       97.98     LegendNANA
05:00 18.5 17.5 94 0.0       97.86     LegendNANA
06:00 19.9 18.8 94 0.4       97.80     LegendNANA
07:00 20.0 19.3 96 5.6       97.89 27   LegendNANA
08:00 19.5 18.7 95 9.6       97.80     LegendNANA
09:00 21.4 20.3 93 2.3       97.64 29   LegendNANA
10:00 24.2 20.2 78 0.0       97.66 32   LegendNANA
11:00 25.5 19.9 71 0.0       97.67 33   LegendNANA
12:00 26.4 19.9 67 0.0       97.65 34   LegendNANA
13:00 26.4 19.5 66 0.0       97.64 34   LegendNANA
14:00 26.1 19.1 65 0.0       97.66 33   LegendNANA
15:00 25.7 19.0 67 0.0       97.68 32   LegendNANA
16:00 25.5 18.3 65 0.0       97.72 32   LegendNANA
17:00 24.8 17.6 64 0.0       97.73 31   LegendNANA
18:00 24.0 17.4 67 0.0       97.76 30   LegendNANA
19:00 22.7 17.4 72 0.0       97.80 28   LegendNANA
20:00 21.1 16.6 75 0.0       97.83 26   LegendNANA
21:00 19.5 17.0 86 0.0       97.93     LegendNANA
22:00 19.2 17.3 89 0.0       97.96     LegendNANA
23:00 18.6 17.0 90 0.0       97.98     LegendNANA

Notes on Data Quality.

Legend

  • E = Estimated
  • M = Missing
  • NA = Not Available*
  • [empty] = Indicates an unobserved value
Date modified: